Weather History for Plattsburgh, NY

Change the Weather History Date:

Tuesday, February 28, 2012

  Actual Average Record
Temperature  
Mean Temperature 26 °F 25 °F  
Max Temperature 37 °F 35 °F 51 °F (1954)
Min Temperature 14 °F 16 °F -10 °F (1993)
Degree Days  
Heating Degree Days 39 40  
Month to date heating degree days 1037 1235  
Since 1 July heating degree days 4727 5612  
Moisture  
Dew Point 18 °F    
Average Humidity 70    
Maximum Humidity 89    
Minimum Humidity 50    
Precipitation  
Precipitation T in - 0.30 in (1976)
Month to date precipitation 0.73  
Year to date precipitation 2.33  
Sea Level Pressure  
Sea Level Pressure 30.31 in    
Wind  
Wind Speed 7 mph (NNW)    
Max Wind Speed 23 mph    
Max Gust Speed 30 mph    
Visibility 8 miles    
Events Snow    
T = Trace of Precipitation, MM = Missing Value Source: NWS Daily Summary

Daily Weather History Graph

Daily Weather History Graph

Search for Another Location

Airport:

Trip Planner

Search our weather history database for the weather conditions in past years. The results will help you decide how hot, cold, wet, or windy it might be!

Date:

Astronomy

Feb. 28, 2012 Rise Set
Actual Time 6:34 AM EST 5:39 PM EST
Civil Twilight 6:04 AM EST 6:08 PM EST
Nautical Twilight 5:30 AM EST 6:42 PM EST
Astronomical Twilight 4:57 AM EST 7:16 PM EST
Moon 9:21 AM EST (2/28) No Moon Set
Length of Visible Light 12h 04m
Length of Day
11h 05m
Waxing Crescent, 37% of the Moon is Illuminated
Feb 28
Waxing Crescent
Feb 29
First Quarter
Mar 8
Full
Mar 14
Last Quarter
Mar 22
New

Hourly Weather History & Observations

Time (EST) Temp. Windchill Dew Point Humidity Pressure Visibility Wind Dir Wind Speed Gust Speed Precip Events Conditions
12:53 AM 36.0 °F 33.3 °F 27.0 °F 70% 30.08 in 9.0 mi Variable 3.5 mph - 0.00 in Snow Light Snow
1:53 AM 35.1 °F 32.2 °F 28.9 °F 78% 30.10 in 9.0 mi WSW 3.5 mph - 0.00 in Snow Light Snow
2:33 AM 33.8 °F - 28.4 °F 81% 30.10 in 6.0 mi Calm Calm - 0.00 in Snow Light Snow
2:53 AM 34.0 °F 31.0 °F 30.0 °F 85% 30.12 in 5.0 mi NNW 3.5 mph - 0.00 in Snow Light Snow
3:23 AM 32.0 °F 24.2 °F 28.4 °F 87% 30.12 in 3.0 mi NW 9.2 mph - 0.00 in Snow Light Snow
3:33 AM 33.8 °F 24.3 °F 28.4 °F 81% 30.13 in 6.0 mi NW 13.8 mph 20.7 mph 0.00 in Snow Light Snow
3:53 AM 32.0 °F 21.2 °F 25.0 °F 75% 30.15 in 9.0 mi NW 16.1 mph 24.2 mph 0.00 in Snow Light Snow
4:34 AM 30.2 °F 21.9 °F 26.6 °F 86% 30.19 in 2.0 mi NNW 9.2 mph - 0.00 in Snow Light Snow
4:53 AM 30.0 °F 20.0 °F 26.1 °F 85% 30.22 in 1.8 mi NW 12.7 mph - 0.00 in Snow Light Snow
5:04 AM 28.4 °F 16.2 °F 24.8 °F 86% 30.22 in 3.0 mi NNW 17.3 mph 23.0 mph 0.00 in Snow Light Snow
5:14 AM 28.4 °F 16.2 °F 21.2 °F 74% 30.23 in 8.0 mi NNW 17.3 mph 27.6 mph 0.00 in Snow Light Snow
5:53 AM 26.1 °F 12.7 °F 16.0 °F 66% 30.29 in 10.0 mi NNW 18.4 mph 29.9 mph 0.00 in   Overcast
6:53 AM 24.1 °F 11.5 °F 14.0 °F 65% 30.33 in 9.0 mi NNW 15.0 mph 23.0 mph 0.00 in   Overcast
7:42 AM 24.8 °F 17.9 °F 12.2 °F 59% 30.35 in 10.0 mi NW 5.8 mph 23.0 mph N/A   Scattered Clouds
7:53 AM 23.0 °F 12.4 °F 10.9 °F 60% 30.38 in 10.0 mi NW 10.4 mph 17.3 mph N/A   Clear
8:53 AM 24.1 °F 11.5 °F 10.0 °F 55% 30.41 in 10.0 mi NNW 15.0 mph 21.9 mph N/A   Partly Cloudy
9:53 AM 24.1 °F 12.0 °F 10.9 °F 57% 30.43 in 10.0 mi NNW 13.8 mph - N/A   Partly Cloudy
10:53 AM 25.0 °F 14.2 °F 10.9 °F 55% 30.43 in 10.0 mi NNW 11.5 mph - N/A   Clear
11:53 AM 28.0 °F 18.6 °F 12.9 °F 53% 30.42 in 10.0 mi North 10.4 mph - N/A   Clear
12:53 PM 28.0 °F 20.0 °F 12.9 °F 53% 30.41 in 10.0 mi NNE 8.1 mph - N/A   Clear
1:53 PM 28.0 °F 17.5 °F 12.9 °F 53% 30.40 in 10.0 mi NNE 12.7 mph - N/A   Clear
2:53 PM 27.0 °F 18.7 °F 15.1 °F 61% 30.40 in 10.0 mi East 8.1 mph - N/A   Clear
3:53 PM 26.1 °F 20.5 °F 12.9 °F 58% 30.42 in 10.0 mi East 4.6 mph - N/A   Mostly Cloudy
4:53 PM 25.0 °F 20.7 °F 14.0 °F 63% 30.41 in 10.0 mi SE 3.5 mph - N/A   Overcast
5:53 PM 24.1 °F - 12.9 °F 62% 30.42 in 10.0 mi Calm Calm - N/A   Clear
6:53 PM 21.9 °F - 12.9 °F 68% 30.43 in 10.0 mi Calm Calm - N/A   Clear
7:53 PM 19.9 °F - 14.0 °F 78% 30.43 in 10.0 mi Calm Calm - N/A   Clear
8:53 PM 19.0 °F - 14.0 °F 81% 30.42 in 10.0 mi Calm Calm - N/A   Clear
9:53 PM 18.0 °F 11.1 °F 12.0 °F 78% 30.43 in 10.0 mi West 4.6 mph - N/A   Clear
10:53 PM 15.1 °F - 10.9 °F 84% 30.42 in 10.0 mi Calm Calm - N/A   Clear
11:53 PM 15.1 °F - 10.9 °F 84% 30.41 in 10.0 mi Calm Calm - N/A   Clear